SWA604 KDEN-KOMA

Flight info

Callsign SWA604
Flight time 1h 8m
Altitude 37000
Route CHUWY1 CHUWY HOWRY3
Aircraft B38M/M-SDE1FGHILORVWXY/HB1

Departure

Time 2026-05-04 12:32
Airport Denver International Airport (KDEN)

Arrival

Time 2026-05-04 13:41
Airport Eppley Airfield (KOMA)
Time Latitude Longitude Altitude Speed Heading
2026-05-04 12:04 39.85337 -104.68040 5386 ft 0 kts
2026-05-04 12:17 39.85322 -104.68040 5382 ft 3 kts
2026-05-04 12:18 39.85303 -104.68040 5383 ft 2 kts
2026-05-04 12:18 39.85289 -104.68040 5383 ft 3 kts
2026-05-04 12:18 39.85270 -104.68041 5384 ft 3 kts
2026-05-04 12:18 39.85252 -104.68041 5384 ft 3 kts
2026-05-04 12:19 39.85237 -104.68052 5381 ft 0 kts 66°
2026-05-04 12:19 39.85237 -104.68051 5381 ft 0 kts 66°
2026-05-04 12:20 39.85240 -104.68043 5382 ft 0 kts 67°
2026-05-04 12:23 39.85242 -104.68035 5383 ft 3 kts 68°
2026-05-04 12:23 39.85243 -104.68026 5382 ft 2 kts 93°
2026-05-04 12:24 39.85236 -104.67997 5381 ft 2 kts 95°
2026-05-04 12:24 39.85238 -104.67964 5383 ft 6 kts 87°
2026-05-04 12:24 39.85240 -104.67890 5386 ft 11 kts 88°
2026-05-04 12:24 39.85240 -104.67772 5386 ft 16 kts 90°
2026-05-04 12:25 39.85238 -104.67606 5386 ft 21 kts 89°
2026-05-04 12:25 39.85238 -104.67412 5386 ft 22 kts 91°
2026-05-04 12:25 39.85235 -104.67204 5386 ft 23 kts 91°
2026-05-04 12:25 39.85233 -104.66996 5386 ft 23 kts 90°
2026-05-04 12:26 39.85234 -104.66789 5386 ft 23 kts 90°
2026-05-04 12:26 39.85228 -104.66582 5390 ft 22 kts 100°
2026-05-04 12:26 39.85210 -104.66402 5392 ft 19 kts 73°
2026-05-04 12:26 39.85320 -104.66355 5391 ft 20 kts
2026-05-04 12:27 39.85487 -104.66355 5392 ft 28 kts
2026-05-04 12:27 39.85703 -104.66351 5389 ft 33 kts
2026-05-04 12:27 39.85930 -104.66350 5387 ft 33 kts
2026-05-04 12:27 39.86098 -104.66339 5384 ft 19 kts 21°
2026-05-04 12:28 39.86113 -104.66237 5387 ft 10 kts 95°
2026-05-04 12:28 39.86107 -104.66157 5384 ft 0 kts 93°
2026-05-04 12:28 39.86107 -104.66156 5385 ft 0 kts 93°
2026-05-04 12:29 39.86107 -104.66154 5385 ft 0 kts 93°
2026-05-04 12:29 39.86107 -104.66153 5385 ft 0 kts 93°
2026-05-04 12:30 39.86107 -104.66152 5385 ft 0 kts 93°
2026-05-04 12:30 39.86106 -104.66149 5385 ft 1 kts 115°
2026-05-04 12:30 39.86059 -104.66143 5389 ft 11 kts 185°
2026-05-04 12:30 39.86015 -104.66077 5390 ft 17 kts 98°
2026-05-04 12:31 39.85967 -104.66020 5391 ft 0 kts 178°
2026-05-04 12:31 39.85965 -104.66020 5391 ft 0 kts 178°
2026-05-04 12:31 39.85907 -104.66019 5388 ft 33 kts 179°
2026-05-04 12:31 39.85461 -104.66026 5389 ft 93 kts 180°
2026-05-04 12:32 39.84637 -104.66033 5411 ft 142 kts 180°
2026-05-04 12:32 39.82316 -104.66044 6118 ft 174 kts 183°
2026-05-04 12:32 39.81102 -104.66061 6610 ft 183 kts 184°
2026-05-04 12:33 39.80366 -104.66069 6829 ft 189 kts 183°
2026-05-04 12:33 39.79034 -104.66084 7356 ft 192 kts 183°
2026-05-04 12:33 39.77696 -104.66080 7916 ft 195 kts 178°
2026-05-04 12:33 39.76382 -104.65438 8224 ft 215 kts 142°
2026-05-04 12:34 39.75477 -104.63813 8498 ft 234 kts 109°
2026-05-04 12:34 39.75330 -104.61639 8708 ft 256 kts 77°
2026-05-04 12:34 39.76005 -104.59404 9010 ft 275 kts 58°
2026-05-04 12:34 39.77060 -104.57254 9417 ft 290 kts 46°
2026-05-04 12:35 39.78651 -104.55638 10035 ft 292 kts 28°
2026-05-04 12:35 39.80448 -104.54287 10494 ft 307 kts 27°
2026-05-04 12:35 39.82353 -104.52876 10880 ft 322 kts 27°
2026-05-04 12:35 39.84391 -104.51610 11389 ft 329 kts 14°
2026-05-04 12:36 39.86606 -104.50836 12141 ft 331 kts 13°
2026-05-04 12:36 39.88832 -104.50032 12891 ft 334 kts 13°
2026-05-04 12:36 39.91077 -104.49203 13674 ft 337 kts 13°
2026-05-04 12:36 39.93315 -104.48364 14353 ft 341 kts 13°
2026-05-04 12:37 39.95613 -104.47497 15050 ft 345 kts 13°
2026-05-04 12:37 39.97933 -104.46618 15746 ft 349 kts 13°
2026-05-04 12:37 40.00279 -104.45728 16425 ft 354 kts 13°
2026-05-04 12:37 40.02653 -104.44827 17146 ft 356 kts 13°
2026-05-04 12:38 40.05039 -104.43919 17807 ft 360 kts 13°
2026-05-04 12:38 40.07459 -104.42998 18404 ft 364 kts 13°
2026-05-04 12:38 40.09900 -104.42069 18953 ft 368 kts 13°
2026-05-04 12:38 40.12368 -104.41128 19503 ft 372 kts 13°
2026-05-04 12:39 40.14867 -104.40175 20061 ft 375 kts 13°
2026-05-04 12:39 40.17385 -104.39214 20608 ft 379 kts 13°
2026-05-04 12:39 40.19934 -104.38240 21161 ft 383 kts 13°
2026-05-04 12:39 40.22511 -104.37255 21702 ft 387 kts 13°
2026-05-04 12:40 40.25071 -104.36276 22243 ft 390 kts 12°
2026-05-04 12:40 40.27677 -104.35278 22751 ft 394 kts 12°
2026-05-04 12:40 40.30331 -104.34261 23262 ft 398 kts 12°
2026-05-04 12:40 40.33004 -104.33236 23704 ft 401 kts 12°
2026-05-04 12:41 40.35693 -104.32204 24120 ft 405 kts 12°
2026-05-04 12:41 40.38410 -104.31160 24543 ft 408 kts 11°
2026-05-04 12:41 40.41144 -104.30109 24962 ft 411 kts 11°
2026-05-04 12:41 40.43902 -104.29048 25355 ft 414 kts 11°
2026-05-04 12:42 40.46676 -104.27979 25762 ft 417 kts 11°
2026-05-04 12:42 40.49472 -104.26902 26195 ft 419 kts 11°
2026-05-04 12:42 40.52268 -104.25823 26576 ft 422 kts 11°
2026-05-04 12:42 40.55019 -104.24348 26958 ft 434 kts 26°
2026-05-04 12:43 40.57366 -104.21876 27381 ft 446 kts 43°
2026-05-04 12:43 40.59167 -104.18502 27736 ft 457 kts 60°
2026-05-04 12:43 40.60209 -104.14511 28107 ft 466 kts 78°
2026-05-04 12:43 40.60432 -104.10246 28434 ft 470 kts 90°
2026-05-04 12:44 40.60570 -104.05938 28706 ft 474 kts 83°
2026-05-04 12:44 40.60962 -104.01612 29060 ft 476 kts 81°
2026-05-04 12:44 40.61457 -103.97285 29384 ft 479 kts 79°
2026-05-04 12:44 40.62006 -103.92951 29704 ft 482 kts 78°
2026-05-04 12:45 40.62582 -103.88592 29989 ft 484 kts 78°
2026-05-04 12:45 40.63175 -103.84205 30291 ft 487 kts 78°
2026-05-04 12:45 40.63764 -103.79870 30590 ft 488 kts 78°
2026-05-04 12:45 40.64367 -103.75445 30889 ft 490 kts 78°
2026-05-04 12:46 40.64968 -103.71017 31180 ft 492 kts 78°
2026-05-04 12:46 40.65569 -103.66579 31469 ft 494 kts 78°
2026-05-04 12:46 40.66170 -103.62122 31763 ft 496 kts 78°
2026-05-04 12:46 40.66772 -103.57651 32059 ft 497 kts 78°
2026-05-04 12:47 40.67375 -103.53153 32347 ft 499 kts 78°
2026-05-04 12:47 40.67980 -103.48636 32641 ft 501 kts 78°
2026-05-04 12:47 40.68581 -103.44129 33033 ft 500 kts 78°
2026-05-04 12:47 40.69181 -103.39609 33326 ft 501 kts 78°
2026-05-04 12:48 40.69782 -103.35075 33624 ft 502 kts 78°
2026-05-04 12:48 40.70372 -103.30610 33977 ft 501 kts 78°
2026-05-04 12:48 40.70969 -103.26080 34266 ft 501 kts 78°
2026-05-04 12:48 40.71563 -103.21550 34507 ft 502 kts 78°
2026-05-04 12:49 40.72159 -103.16998 34762 ft 503 kts 78°
2026-05-04 12:49 40.72753 -103.12448 34994 ft 504 kts 78°
2026-05-04 12:49 40.73343 -103.07904 35251 ft 502 kts 78°
2026-05-04 12:49 40.73932 -103.03362 35516 ft 502 kts 78°
2026-05-04 12:50 40.74517 -102.98831 35740 ft 503 kts 78°
2026-05-04 12:50 40.75103 -102.94286 35967 ft 504 kts 78°
2026-05-04 12:50 40.75689 -102.89717 36181 ft 504 kts 78°
2026-05-04 12:50 40.76273 -102.85151 36406 ft 505 kts 78°
2026-05-04 12:51 40.76856 -102.80583 36609 ft 506 kts 78°
2026-05-04 12:51 40.77438 -102.76000 36769 ft 507 kts 78°
2026-05-04 12:51 40.78018 -102.71422 36763 ft 505 kts 78°
2026-05-04 12:52 40.79164 -102.62335 36747 ft 502 kts 78°
2026-05-04 12:52 40.80302 -102.53245 36744 ft 502 kts 78°
2026-05-04 12:53 40.81435 -102.44137 36746 ft 503 kts 78°
2026-05-04 12:53 40.82553 -102.35089 36754 ft 502 kts 78°
2026-05-04 12:54 40.83668 -102.26014 36744 ft 501 kts 78°
2026-05-04 12:54 40.84777 -102.16917 36754 ft 501 kts 78°
2026-05-04 12:55 40.85879 -102.07819 36770 ft 501 kts 78°
2026-05-04 12:55 40.86971 -101.98735 36788 ft 502 kts 78°
2026-05-04 12:56 40.88060 -101.89623 36799 ft 502 kts 78°
2026-05-04 12:56 40.89135 -101.80556 36804 ft 502 kts 78°
2026-05-04 12:57 40.90208 -101.71450 36804 ft 502 kts 78°
2026-05-04 12:57 40.91275 -101.62337 36808 ft 502 kts 78°
2026-05-04 12:58 40.92335 -101.53209 36791 ft 502 kts 78°
2026-05-04 12:58 40.93389 -101.44070 36774 ft 502 kts 78°
2026-05-04 12:59 40.94426 -101.35012 36762 ft 502 kts 78°
2026-05-04 12:59 40.95465 -101.25876 36757 ft 502 kts 79°
2026-05-04 13:00 40.96499 -101.16711 36751 ft 502 kts 79°
2026-05-04 13:00 40.97525 -101.07555 36756 ft 503 kts 79°
2026-05-04 13:01 40.98541 -100.98418 36772 ft 503 kts 79°
2026-05-04 13:01 40.99553 -100.89258 36778 ft 503 kts 79°
2026-05-04 13:02 41.00556 -100.80097 36780 ft 503 kts 79°
2026-05-04 13:02 41.01554 -100.70928 36791 ft 503 kts 79°
2026-05-04 13:03 41.02535 -100.61828 36794 ft 503 kts 79°
2026-05-04 13:03 41.03519 -100.52648 36784 ft 503 kts 79°
2026-05-04 13:04 41.04494 -100.43475 36771 ft 503 kts 79°
2026-05-04 13:04 41.05461 -100.34304 36755 ft 503 kts 79°
2026-05-04 13:05 41.06423 -100.25107 36717 ft 503 kts 79°
2026-05-04 13:05 41.07377 -100.15917 36725 ft 503 kts 79°
2026-05-04 13:06 41.08322 -100.06739 36715 ft 502 kts 79°
2026-05-04 13:06 41.09258 -99.97570 36715 ft 502 kts 79°
2026-05-04 13:07 41.10184 -99.88437 36721 ft 502 kts 79°
2026-05-04 13:07 41.11107 -99.79246 36733 ft 501 kts 79°
2026-05-04 13:08 41.12016 -99.70132 36712 ft 499 kts 80°
2026-05-04 13:08 41.12919 -99.61005 36716 ft 499 kts 80°
2026-05-04 13:09 41.13814 -99.51875 36716 ft 499 kts 80°
2026-05-04 13:09 41.14704 -99.42748 36727 ft 498 kts 80°
2026-05-04 13:10 41.15579 -99.33669 36707 ft 496 kts 80°
2026-05-04 13:10 41.16448 -99.24586 36708 ft 496 kts 80°
2026-05-04 13:11 41.17304 -99.15551 36711 ft 496 kts 80°
2026-05-04 13:11 41.18159 -99.06462 36720 ft 496 kts 80°
2026-05-04 13:12 41.19002 -98.97405 36711 ft 494 kts 80°
2026-05-04 13:12 41.19839 -98.88343 36721 ft 495 kts 80°
2026-05-04 13:13 41.20670 -98.79271 36717 ft 495 kts 81°
2026-05-04 13:13 41.21494 -98.70194 36731 ft 494 kts 81°
2026-05-04 13:14 41.22307 -98.61159 36714 ft 491 kts 81°
2026-05-04 13:14 41.23111 -98.52140 36720 ft 492 kts 81°
2026-05-04 13:15 41.23902 -98.43182 36727 ft 491 kts 81°
2026-05-04 13:15 41.24691 -98.34165 36736 ft 491 kts 81°
2026-05-04 13:16 41.25341 -98.26681 36726 ft 489 kts 82°
2026-05-04 13:16 41.26113 -98.17707 36725 ft 489 kts 82°
2026-05-04 13:17 41.26880 -98.08724 36718 ft 489 kts 82°
2026-05-04 13:17 41.27639 -97.99743 36715 ft 489 kts 82°
2026-05-04 13:18 41.28392 -97.90746 36716 ft 488 kts 82°
2026-05-04 13:18 41.29136 -97.81772 36718 ft 488 kts 82°
2026-05-04 13:19 41.29872 -97.72810 36716 ft 488 kts 82°
2026-05-04 13:19 41.30602 -97.63830 36717 ft 488 kts 82°
2026-05-04 13:20 41.31325 -97.54859 36719 ft 488 kts 82°
2026-05-04 13:20 41.32038 -97.45946 36741 ft 488 kts 82°
2026-05-04 13:21 41.32748 -97.36985 36744 ft 487 kts 82°
2026-05-04 13:21 41.33453 -97.28014 36744 ft 487 kts 82°
2026-05-04 13:22 41.34151 -97.19028 36610 ft 488 kts 82°
2026-05-04 13:22 41.34497 -97.14543 36295 ft 486 kts 82°
2026-05-04 13:22 41.34841 -97.10071 35957 ft 486 kts 82°
2026-05-04 13:22 41.35182 -97.05611 35628 ft 485 kts 82°
2026-05-04 13:23 41.35521 -97.01155 35249 ft 481 kts 82°
2026-05-04 13:23 41.35851 -96.96792 34664 ft 479 kts 82°
2026-05-04 13:23 41.36181 -96.92401 34208 ft 475 kts 82°
2026-05-04 13:23 41.36506 -96.88057 33798 ft 470 kts 83°
2026-05-04 13:24 41.36474 -96.83718 33270 ft 468 kts 99°
2026-05-04 13:24 41.35693 -96.79548 32797 ft 463 kts 104°
2026-05-04 13:24 41.34941 -96.75377 32247 ft 460 kts 102°
2026-05-04 13:25 41.33509 -96.67191 31050 ft 450 kts 103°
2026-05-04 13:25 41.32801 -96.63151 30482 ft 445 kts 103°
2026-05-04 13:25 41.32101 -96.59167 29939 ft 440 kts 103°
2026-05-04 13:25 41.31414 -96.55267 29284 ft 435 kts 103°
2026-05-04 13:26 41.30725 -96.51363 28662 ft 431 kts 103°
2026-05-04 13:26 41.30044 -96.47511 28032 ft 426 kts 103°
2026-05-04 13:26 41.29368 -96.43694 27430 ft 421 kts 103°
2026-05-04 13:26 41.28700 -96.39931 26687 ft 417 kts 103°
2026-05-04 13:27 41.28037 -96.36207 25997 ft 412 kts 103°
2026-05-04 13:27 41.27378 -96.32515 25331 ft 408 kts 103°
2026-05-04 13:27 41.26729 -96.28858 24691 ft 403 kts 103°
2026-05-04 13:27 41.26084 -96.25253 24063 ft 400 kts 102°
2026-05-04 13:28 41.25444 -96.21679 23462 ft 396 kts 102°
2026-05-04 13:28 41.24808 -96.18135 22741 ft 393 kts 102°
2026-05-04 13:28 41.24175 -96.14608 22000 ft 391 kts 102°
2026-05-04 13:28 41.23545 -96.11111 21275 ft 389 kts 102°
2026-05-04 13:29 41.22918 -96.07633 20572 ft 387 kts 103°
2026-05-04 13:29 41.22293 -96.04168 19876 ft 385 kts 103°
2026-05-04 13:29 41.21522 -96.00774 19174 ft 384 kts 117°
2026-05-04 13:29 41.19938 -95.97983 18466 ft 378 kts 143°
2026-05-04 13:30 41.17684 -95.96345 17763 ft 365 kts 169°
2026-05-04 13:30 41.15223 -95.96143 17043 ft 348 kts 197°
2026-05-04 13:30 41.13074 -95.97343 16362 ft 328 kts 223°
2026-05-04 13:30 41.11698 -95.99560 15741 ft 311 kts 250°
2026-05-04 13:31 41.11330 -96.02293 15148 ft 299 kts 277°
2026-05-04 13:31 41.12045 -96.04823 14593 ft 296 kts 305°
2026-05-04 13:31 41.13645 -96.06510 14031 ft 301 kts 334°
2026-05-04 13:31 41.15736 -96.06913 13430 ft 312 kts
2026-05-04 13:32 41.17786 -96.05873 12750 ft 325 kts 32°
2026-05-04 13:32 41.19278 -96.03594 12074 ft 334 kts 61°
2026-05-04 13:32 41.19828 -96.00584 11374 ft 340 kts 89°
2026-05-04 13:32 41.19341 -95.97525 10688 ft 341 kts 112°
2026-05-04 13:33 41.18233 -95.94742 10015 ft 341 kts 123°
2026-05-04 13:33 41.16853 -95.92193 9322 ft 340 kts 127°
2026-05-04 13:33 41.15432 -95.89685 8606 ft 340 kts 127°
2026-05-04 13:33 41.14018 -95.87179 7913 ft 338 kts 127°
2026-05-04 13:34 41.12549 -95.84756 7255 ft 336 kts 131°
2026-05-04 13:34 41.11013 -95.82434 6616 ft 334 kts 132°
2026-05-04 13:34 41.09516 -95.80117 5977 ft 331 kts 125°
2026-05-04 13:34 41.08658 -95.77321 5296 ft 328 kts 96°
2026-05-04 13:35 41.08871 -95.74373 4662 ft 321 kts 70°
2026-05-04 13:35 41.11395 -95.69946 3507 ft 304 kts 25°
2026-05-04 13:35 41.13405 -95.69173 3099 ft 291 kts
2026-05-04 13:36 41.15257 -95.69576 3080 ft 260 kts 331°
2026-05-04 13:36 41.16473 -95.71087 3063 ft 232 kts 296°
2026-05-04 13:36 41.17105 -95.72985 3062 ft 216 kts 288°
2026-05-04 13:36 41.17515 -95.74819 3036 ft 199 kts 282°
2026-05-04 13:37 41.17884 -95.76521 2998 ft 187 kts 292°
2026-05-04 13:37 41.18660 -95.77906 3042 ft 188 kts 314°
2026-05-04 13:37 41.19635 -95.78922 3041 ft 169 kts 321°
2026-05-04 13:37 41.20267 -95.79520 3000 ft 161 kts 321°
2026-05-04 13:38 41.21444 -95.80631 2830 ft 154 kts 320°
2026-05-04 13:38 41.22312 -95.81451 2664 ft 153 kts 319°
2026-05-04 13:38 41.23174 -95.82272 2497 ft 153 kts 319°
2026-05-04 13:38 41.24040 -95.83096 2301 ft 153 kts 319°
2026-05-04 13:39 41.24905 -95.83918 2109 ft 153 kts 320°
2026-05-04 13:39 41.25774 -95.84734 1887 ft 151 kts 321°
2026-05-04 13:39 41.26621 -95.85542 1716 ft 149 kts 322°
2026-05-04 13:39 41.27436 -95.86366 1521 ft 145 kts 316°
2026-05-04 13:40 41.28129 -95.87329 1349 ft 144 kts 313°
2026-05-04 13:40 41.28861 -95.88215 1138 ft 142 kts 325°
2026-05-04 13:40 41.29656 -95.88971 992 ft 133 kts 324°
2026-05-04 13:40 41.30232 -95.89514 991 ft 76 kts 324°
2026-05-04 13:41 41.30538 -95.89830 992 ft 32 kts 295°
2026-05-04 13:41 41.30471 -95.89925 994 ft 14 kts 141°
2026-05-04 13:41 41.30386 -95.89840 990 ft 16 kts 143°
2026-05-04 13:42 41.30275 -95.89851 991 ft 3 kts 151°
2026-05-04 13:42 41.30247 -95.89834 992 ft 5 kts 179°
2026-05-04 13:42 41.30205 -95.89845 990 ft 7 kts 188°
2026-05-04 13:42 41.30183 -95.89849 991 ft 0 kts 189°